Regional Weather Roundup
Issued by NWS

Home | Current Version | Previous Version | Graphics & Text | Print | Product List | Glossary On
Versions: 1 2 3 4 5 6 7 8 9 10 11 12 13 14 15 16 17 18 19 20 21 22 23 24 25 26 27 28 29 30 31 32 33 34 35 36 37 38 39 40 41 42 43 44 45 46 47 48 49 50
000
ASUS45 KSLC 172310
RWRUT

UTAH REGIONAL WEATHER ROUNDUP
NATIONAL WEATHER SERVICE SALT LAKE CITY UT
500 PM MDT FRI APR 17 2015

UTZ001>011-023>025-180000-

NORTHERN UTAH

CITY           SKY/WX    TMP DP  RH WIND       PRES   REMARKS
BRIGHAM CITY   MOSUNNY   66  30  26 CALM      30.00F
HILL AFB       PTSUNNY   62  37  39 SW7       30.02F
LOGAN          SUNNY     65  34  31 N5        30.00F
OGDEN          SUNNY     64  34  32 NW8       30.00F
PROVO AIRPORT  PTSUNNY   57  36  44 CALM      30.00F
SALT LAKE CITY PTSUNNY   60  36  40 NW9       30.02F
VERNAL         CLOUDY    49  31  49 N18G35    30.02R
WENDOVER       SUNNY     66  19  16 CALM      30.02F
HEBER CITY     CLOUDY    52  32  46 N17G28    30.02S
WEST JORDAN    PTSUNNY   59  37  44 NW8       30.03F

$$

UTZ012>022-026-027-180000-

SOUTHERN/CENTRAL UTAH

CITY           SKY/WX    TMP DP  RH WIND       PRES   REMARKS
BLANDING       CLOUDY    39  34  82 SW3       30.10S
BRYCE CANYON   CLOUDY    43  29  57 W18G28    30.06S
CEDAR CITY     CLOUDY    55  27  34 N14G26    30.05F
DELTA          PTSUNNY   60  28  29 N8        30.01F
HANKSVILLE     CLOUDY    54  37  54 SE15      29.97F
MILFORD        MOSUNNY   60  28  29 N10G17    30.03F
MOAB/CYNLANDS  CLOUDY    41  41 100 SE16      29.98R
PRICE          RAIN      46  38  73 N16G28    30.00R
ST GEORGE      MOCLDY    70  30  23 NE5       29.99S
KANAB          PTSUNNY   55  30  38 CALM      30.05S

$$

REGIONAL REPORTS     COLORADO/ARIZONA

CITY           SKY/WX    TMP DP  RH WIND       PRES   REMARKS
CRAIG, CO      CLOUDY    45  35  68 N3        29.94F
GRAND JUNCTION CLOUDY    36  35  96 NE5       30.01R WCI  32
RIFLE          CLOUDY    43  35  73 W18       29.96F
MONTROSE       CLOUDY    43  29  57 CALM      30.00R
CORTEZ         PTSUNNY   41  28  60 NW10      30.03S
PAGE, AZ       CLOUDY    59  28  30 S6        29.99F
GRAND CANYON   PTSUNNY   51  25  36 N10G17    30.08S
KINGMAN        MOSUNNY   72  20  14 N15G24    30.01F
FLAGSTAFF      CLOUDY    46  25  43 NW10G20   30.09S

$$

REGIONAL REPORTS    NEVADA/IDAHO/WYOMING

CITY           SKY/WX    TMP DP  RH WIND       PRES   REMARKS
LAS VEGAS, NV  MOSUNNY   79  15   9 SE6       29.90F
ELY            SUNNY     63  14  15 N14G25    30.07F
ELKO           SUNNY     68  19  15 VRB3      30.06F
POCATELLO, ID  SUNNY     67  21  17 W7        30.04F
BURLEY         SUNNY     66  20  17 W7        30.04F
EVANSTON, WY   CLOUDY    42  33  70 E12       30.12R
ROCK SPRINGS   LGT RAIN  37  35  92 NE17G26   30.10S WCI  27
KEMMERER       CLOUDY    45  34  65 SE13      30.12R

$$



USA.gov is the U.S. government's official web portal to all federal, state and local government web resources and services.